www.pogodaiklimat.ru

Погода и климат >> Архив погоды >> Албания >> Влёра


ПОГОДА во Влёре

  • Прогноз погоды во Влёре
  • Монитор погоды во Влёре

АРХИВ ПОГОДЫ во Влёре

Время (UTC), дата Ветер
(напр.,м/с)
 
Видим.   Явления Облачность Т
(С)
Тd
(С)
f
(%)
Тe
(С)
Тes
(С)
Комфортность P
(гПа)
Po
(гПа)
Тmin
(С)
Tmax
(С)
R
(мм)
R24
(мм)
S
(см)
06 17.03 штиль 0 20 км 3/0
[Ci fib]
+6.4 +3.8 83 +6 +7 1018.6 1017.9 +5.5
09 17.03 ЮЗ 2 20 км ясно +15.2 +7.8 61 +15 +25 1019.4 1018.7
12 17.03 ЮЗ 6 20 км 4/0
[Ci fib]
+18.6 +7.1 47 +18 +23 1018.8 1018.1
15 17.03 Ю 2 20 км 4/0
[Ci sp]
+19.0 +9.5 54 +20 +22 1016.7 1016.0
18 17.03 штиль 0 15 км ясно +15.4 +8.7 64 +15 +15 1016.1 1015.4 +20.4
21 17.03 штиль 0 12 км ясно +11.2 +6.9 75 +11 +11 1016.7 1016.0
06 18.03 штиль 0 15 км ясно +10.6 +6.1 74 +10 +12 1015.2 1014.5 +9.0
09 18.03 ЮВ 2 15 км 3/3 1380 м
[Cu med, cong]
+17.0 +9.4 61 +17 +25 1015.7 1015.0
12 18.03 ЮЗ 6 20 км 4/4 1380 м
[Cu med, cong]
+19.2 +5.6 41 +19 +22 1015.9 1015.2
15 18.03 ЮЗ 16 20 км 4/4 1380 м
[Cu med, cong]
+18.6 +8.0 50 +17 +17 1014.3 1013.6
18 18.03 ЮЗ 10 15 км ясно +16.0 +9.2 64 +14 +14 1014.6 1013.9 +19.4
21 18.03 ЮЗ 4 12 км ясно +12.4 +7.6 73 +11 +11 1015.2 1014.5
06 19.03 ЮЗ 2 15 км 3/3 1200 м
[Cu med, cong]
+9.6 +6.1 79 +8 +9 1016.4 1015.6 +8.4
09 19.03 СВ 4 20 км 4/4 1300 м
[Cu hum]
+15.4 +7.6 60 +15 +19 1016.8 1016.1
12 19.03 ЮЗ 2 20 км ясно +18.4 +8.1 51 +19 +31 опасность
простуды
1016.6 1015.9
15 19.03 ЮЗ 8 20 км 3/3 1200 м
[Cu med, cong]
+17.8 +10.2 61 +17 +17 1016.5 1015.7
18 19.03 СЗ 4 20 км 5/5 1380 м
[Sc]
+15.8 +9.4 66 +15 +15 1016.9 1016.2 +18.6
21 19.03 штиль 0 15 км 5/5 1380 м
[Sc]
+13.0 +8.9 76 +13 +13 1018.2 1017.5
06 20.03 ЮВ 4 20 км 6/3 1300 м
[Cu med, cong Ci fib]
+9.4 +8.1 92 +6 +7 1019.4 1018.7 +8.2
09 20.03 штиль 0 20 км 6/6 1200 м
[Sc]
+15.2 +10.2 72 +15 +21 1020.5 1019.8
12 20.03 ЮЗ 6 20 км 6/6 1380 м
[Sc]
+17.6 +10.7 64 +17 +19 1020.1 1019.3
15 20.03 ЮЗ 10 20 км 6/6 1380 м
[Sc]
+18.2 +9.3 56 +17 +17 1020.0 1019.2
18 20.03 СЗ 4 15 км 6/6 1300 м
[Sc]
+15.6 +9.9 69 +15 +15 1021.1 1020.3 +19.0
21 20.03 СЗ 2 12 км 5/5 1500 м
[Sc]
+13.2 +9.8 80 +12 +12 1021.6 1020.9
06 21.03 штиль 0 15 км 5/0
[Ac lent]
+10.8 +8.1 83 +10 +11 1021.8 1021.0 +9.4
09 21.03 ЮЗ 4 15 км 5/0
[Ac trans]
+17.6 +11.5 67 +17 +22 1022.7 1022.0
12 21.03 ЮВ 4 20 км 4/4 1380 м
[Cu med, cong]
+20.8 +8.1 44 +22 +27 комфорт 1022.7 1022.0
15 21.03 ЮЗ 6 20 км 3/3 1380 м
[Cu med, cong]
+21.4 +8.7 44 +23 +23 комфорт 1020.6 1019.9
18 21.03 СВ 12 15 км ясно +19.2 +2.2 32 +18 +18 1021.3 1020.6 +21.8
06 22.03 штиль 0 15 км ясно +10.8 +2.2 55 +11 +13 1023.9 1023.2 +9.6
09 22.03 ЮЗ 4 10 км ясно +18.6 +3.2 36 +19 +26 1024.3 1023.6
12 22.03 ЮЗ 4 20 км ясно +20.6 +6.5 40 +22 +30 комфорт 1022.6 1021.9
15 22.03 ЮЗ 10 20 км ясно +21.0 +5.7 37 +21 +21 комфорт 1021.4 1020.7
18 22.03 СЗ 12 20 км ясно +17.6 +3.1 38 +16 +16 1021.6 1020.9 +21.8
21 22.03 штиль 0 15 км ясно +14.0 +6.9 62 +14 +14 1022.3 1021.5
06 23.03 ЮВ 4 20 км 3/0
[Ci fib]
+10.0 +5.6 74 +7 +9 1020.2 1019.4 +8.6
09 23.03 ЮЗ 2 20 км 3/0
[Ci fib]
+18.2 +3.7 38 +19 +29 1020.4 1019.7
12 23.03 ЮЗ 8 20 км ясно +19.4 +4.7 38 +19 +21 1019.1 1018.4
15 23.03 ЮЗ 6 20 км ясно +20.6 +4.6 35 +21 +22 комфорт 1017.8 1017.1
18 23.03 штиль 0 15 км ясно +15.6 +8.8 64 +15 +15 1018.9 1018.2 +21.2
21 23.03 штиль 0 12 км ясно +12.4 +8.5 77 +12 +12 1019.9 1019.1

 

Местоположение метеостанции Влёра (Албания): широта 40.47 долгота 19.48 высота над уровнем моря 1 м.

В архиве по умолчанию представлена погода во Влёре за последнюю неделю. Архивные данные за месяц целиком и за предыдущие месяцы, начиная с января 2011 года, Вы можете получить, выбрав интересующий диапазон дат из раскрывающегося списка и нажав кнопку "Ввод!".


*Определитесь, кто Вы:
робот инопланетянин человек

Внимание! Время в таблицах - всемирное. Для получения местного времени необходимо прибавить поправку, которая равна 1 ч.

Смотрите также архив погоды в соседних городах и на ближайших метеорологических станциях:

Погода на Сазани (Албания) (17 км)
Погода в Кучове (Албания) (51 км)
Погода в Гирокастре (Албания) (72 км)
Погода в Саранде (Албания) (79 км)
Погода в Дурресе (Албания) (92 км)
Погода в Отранто (Италия) (94 км)
Погода в Эльбасане (Албания) (96 км)
Погода в Тиране (Албания) (99 км)
Погода в Тиране Лапрака (Албания) (102 км)
Погода в Керкире (Греция) (102 км)

Пояснения к столбцам:

Ветер - указаны скорость ветра в м/с - средняя за 10 мин, порывы в срок и между сроками (в фигурных скобках) и направление, откуда дует ветер: С - северный, СВ - северо-восточный, В - восточный, ЮВ - юго-восточный, Ю - южный, ЮЗ - юго-западный, З - западный, СЗ - северо-западный.
Видимость - горизонтальная дальность видимости в метрах или километрах. При видимости от 1 до 10 км при отсутствии осадков обычно наблюдается дымка, при ухудшении видимости до 1 км и менее - туман. В сухую погоду видимость может ухудшаться дымом, пылью или мглою.
Явления - указаны атмосферные явления, наблюдавшиеся в срок или в последний час перед сроком; фигурными скобками обозначены явления, наблюдавшиеся между сроками (за 1-3 часа до срока); квадратными скобками обозначены град или гололедные отложения с указанием их диаметра в мм.
Облачность - указаны через наклонную черту общая и нижняя облачность в баллах и высота нижней границы облаков в метрах; квадратными скобками обозначены формы облаков: Ci - перистые, Cs - перисто-слоистые, Cc - перисто-кучевые, Ac - высококучевые, As - высокослоистые, Sc - слоисто-кучевые, Ns - слоисто-дождевые, Cu - кучевые, Cb - кучево-дождевые. Подробнее классификацию облаков см. в Атласе облаков (PDF).
T - Температура воздуха - температура, измеренная на высоте 2 м над землей.
Td - Температура точки росы - температура, при понижении до которой содержащийся в воздухе водяной пар достигнет насыщения.
f - Относительная влажность воздуха - влажноcть воздуха, измеренная на высоте 2 м над землей.
Te - Эффективная температура - температура, которую ощущает одетый по сезону человек в тени. Характеристика душности погоды. При расчете учитывается влияние влажности воздуха и скорости ветра на теплоощущения человека.
Tes - Эффективная температура на солнце - температура, которую ощущает человек, с поправкой на солнечный нагрев. Характеристика знойности погоды. Зависит от высоты солнца над горизонтом, облачности и скорости ветра. Ночью, в пасмурную погоду, а также при ветре 12 м/с и более поправка равна нулю.
P - Атмосферное давление - приведенное к уровню моря атмосферное давление.
Po - Атмосферное давление - измеренное на уровне метеостанции атмосферное давление.
Tmin - Минимальная температура - минимум температуры воздуха на высоте 2 м над землей.
Tmax - Максимальная температура - максимум температуры воздуха на высоте 2 м над землей.
R - Количество осадков - Количество выпавших осадков за период времени, мм. При наведении курсора мыши на число - период времени, за который выпало указанное количество осадков.
R24 - Количество осадков - Количество выпавших осадков за 24 часа, мм.
S - Снежный покров - Высота снежного покрова, см. При наведении курсора мыши на число - состояние снежного покрова и степень покрытия местности в баллах.